Weather History for KGPI - October, 2014

Change the Weather History Date:

Sunday, October 12, 2014

  Actual Average Record
Temperature  
Mean Temperature 48 °F 44 °F  
Max Temperature 61 °F 57 °F 73 °F (1991)
Min Temperature 35 °F 30 °F 2 °F (2009)
Degree Days  
Heating Degree Days 17 22  
Month to date heating degree days 162 233  
Since 1 July heating degree days 527 733  
Cooling Degree Days 0 0  
Month to date cooling degree days 0 0  
Year to date cooling degree days 217 147  
Moisture  
Dew Point 37 °F    
Average Humidity 68    
Maximum Humidity 100    
Minimum Humidity 36    
Precipitation  
Precipitation T in 0.03 in 0.48 in (1980)
Month to date precipitation 0.06 0.35  
Year to date precipitation 15.54 13.34  
Snow  
Snow 0.00 in - - ()
Month to date snowfall 0.0  
Year to date snowfall 38.2  
Since 1 July snowfall 0.0  
Snow Depth 0.00 in    
Sea Level Pressure  
Sea Level Pressure 30.08 in    
Wind  
Wind Speed 5 mph (SW)    
Max Wind Speed 14 mph    
Max Gust Speed 18 mph    
Visibility 8 miles    
Events      
T = Trace of Precipitation, MM = Missing Value Source: NWS Daily Summary

Daily Weather History Graph

Daily Weather History Graph

Search for Another Location

Airport or City:

Trip Planner

Search our weather history database for the weather conditions in past years. The results will help you decide how hot, cold, wet, or windy it might be!

Date:

Astronomy

Oct. 12, 2014 Rise Set
Actual Time 7:52 AM MDT 6:53 PM MDT
Civil Twilight 7:21 AM MDT 7:25 PM MDT
Nautical Twilight 6:44 AM MDT 8:01 PM MDT
Astronomical Twilight 6:08 AM MDT 8:37 PM MDT
Moon 9:59 PM MDT (10/12) 12:33 PM MDT (10/12)
Length of Visible Light 12h 04m
Length of Day
11h 01m
Waning Gibbous, 79% of the Moon is Illuminated
Oct 12
Waning Gibbous
Oct 15
Last Quarter
Oct 23
New
Oct 30
First Quarter
Nov 6
Full

Hourly Weather History & Observations

Time (MDT) Temp. Windchill Dew Point Humidity Pressure Visibility Wind Dir Wind Speed Gust Speed Precip Events Conditions
12:55 AM 46.0 °F - 43.0 °F 89% 29.89 in 10.0 mi Calm Calm - N/A   Overcast
1:55 AM 45.0 °F 41.2 °F 43.0 °F 93% 29.91 in 10.0 mi South 6.9 mph - 0.00 in   Scattered Clouds
2:55 AM 42.8 °F 40.1 °F 42.8 °F 100% 29.95 in 10.0 mi SSW 4.6 mph - N/A   Mostly Cloudy
3:55 AM 41.0 °F - 41.0 °F 100% 29.99 in 10.0 mi Calm Calm - N/A   Partly Cloudy
4:21 AM 37.9 °F - 37.9 °F 100% 29.98 in 1.8 mi Calm Calm - N/A   Clear
4:29 AM 37.9 °F - 37.0 °F 97% 29.98 in 1.0 mi Calm Calm - N/A   Scattered Clouds
4:55 AM 37.9 °F 34.4 °F 37.0 °F 97% 30.03 in 1.5 mi NW 4.6 mph - N/A   Overcast
5:01 AM 37.4 °F 34.9 °F 37.4 °F 100% 30.00 in 3.0 mi WNW 3.5 mph - N/A   Overcast
5:55 AM 36.0 °F 33.3 °F 36.0 °F 100% 30.05 in 2.5 mi SW 3.5 mph - N/A   Scattered Clouds
6:02 AM 35.1 °F - 35.1 °F 100% 30.01 in 3.0 mi Calm Calm - N/A   Partly Cloudy
6:55 AM 36.0 °F 33.3 °F 35.1 °F 97% 30.07 in 10.0 mi West 3.5 mph - N/A   Clear
7:55 AM 36.0 °F - 36.0 °F 100% 30.11 in 10.0 mi Calm Calm - N/A   Mostly Cloudy
8:55 AM 39.0 °F - 37.9 °F 96% 30.13 in 10.0 mi Calm Calm - N/A   Overcast
9:55 AM 43.0 °F - 41.0 °F 93% 30.14 in 10.0 mi Calm Calm - N/A   Overcast
10:55 AM 48.9 °F - 43.0 °F 80% 30.15 in 10.0 mi ESE 3.5 mph - N/A   Partly Cloudy
11:55 AM 53.1 °F - 36.0 °F 52% 30.14 in 10.0 mi SW 6.9 mph - N/A   Overcast
12:55 PM 54.0 °F - 36.0 °F 51% 30.14 in 10.0 mi SW 8.1 mph - N/A   Overcast
1:55 PM 54.0 °F - 39.0 °F 57% 30.12 in 10.0 mi SSE 8.1 mph - N/A   Overcast
2:55 PM 55.9 °F - 35.1 °F 45% 30.12 in 10.0 mi SW 6.9 mph - N/A   Overcast
3:55 PM 57.9 °F - 33.1 °F 39% 30.11 in 10.0 mi West 11.5 mph - N/A   Mostly Cloudy
4:55 PM 60.1 °F - 35.1 °F 39% 30.12 in 10.0 mi SW 8.1 mph - N/A   Overcast
5:55 PM 59.0 °F - 32.0 °F 36% 30.14 in 10.0 mi West 8.1 mph - N/A   Overcast
6:55 PM 50.0 °F - 37.9 °F 63% 30.16 in 10.0 mi SSE 3.5 mph - N/A   Mostly Cloudy
7:55 PM 46.9 °F - 37.9 °F 71% 30.17 in 10.0 mi South 6.9 mph - N/A   Mostly Cloudy
8:55 PM 48.0 °F - 36.0 °F 63% 30.17 in 10.0 mi SSW 8.1 mph - N/A   Partly Cloudy
9:55 PM 48.0 °F - 36.0 °F 63% 30.17 in 10.0 mi SSE 4.6 mph - N/A   Mostly Cloudy
10:55 PM 45.0 °F 43.5 °F 36.0 °F 71% 30.16 in 10.0 mi SSW 3.5 mph - N/A   Scattered Clouds
11:55 PM 44.1 °F 41.5 °F 36.0 °F 73% 30.16 in 10.0 mi Variable 4.6 mph - N/A   Clear